sat.trackr.live / text

‹ back to catalog

STARLINK-30295

NORAD 57683 · 2023-124W

PAYLOAD ACTIVE UNKNOWN

§ Identity

Operator
Country
US
Launch date
2023-08-22
Launch site
AFWTR
Launch vehicle
Mass (kg)
RCS (m²)

Purposes: comms

External: N2YO · Heavens-Above · Gunter

§ Orbital elements

Epoch: 2026-05-25T04:09:27.198144Z

Period
94.11 min
Inclination
53.1604°
Eccentricity
0.0001065
Mean motion
15.30190680 rev/d
Perigee alt
474.5 km
Apogee alt
476.0 km
Semi-major
6,853.4 km
B*
1.6622e-5
RAAN
211.8093°
Arg perigee
94.8197°
Mean anomaly
265.2925°
Rev number
15,527

§ Raw data

STARLINK-302951 57683U 23124W   26145.17323146  .00000133  00000+0  16622-4 0  99932 57683  53.1604 211.8093 0001065  94.8197 265.2925 15.30190680155278

JSON: /api/v1/satellites/57683 · /tle

For live sub-satellite position, see the globe view (requires WebGL).

§ Visibility from observer

Set your observer location to see the next 7 days of passes ≥ 10°. The values pass through the URL so the page stays shareable.

No JS? Fill the form by hand. The geolocation button needs JavaScript.